Airfield :
LOGIN :

Register | Disclaimer

   EN    FR    IT 

 










Legend :    VFR   Marginal VFR   IFR   Intensive IFR   Very Intensive IFR
Visi :
Ceiling :
>= 8 km
>= 3000ft
5 to 8 km
1000 to 3000 ft
1500m to 5 km
500 to 1000 ft
800 to 1500m
200 to 500 ft
< 800m
< 200 ft
Symbols :   Thunderstorms  Fog  Heavy snow  Heavy precipitations  Wind > 20 kt
SIGMETs :     Misc.  Thunderstorms  Icing  Turbulence  Mountain Waves  Volcanic Ashes






- Airport Elevation : 330 ft
- IATA code : LVA


LFOV - Laval-Entrammes

CURRENT METAR :
  • 290500Z AUTO 23006KT CAVOK 12/10 Q1019

EXPIRED METARs :
  • 290430Z AUTO 23006KT 200V260 9999 SCT042 SCT150 OVC200 12/10 Q1019
  • 290400Z AUTO 24007KT CAVOK 11/10 Q1018
  • 290330Z AUTO 23008KT 200V270 CAVOK 12/10 Q1018
  • 290300Z AUTO 22007KT 190V260 CAVOK 12/10 Q1018
  • 290230Z AUTO 21007KT 190V250 CAVOK 12/10 Q1018

TAF N/A



MET'MAP, your aeronautical weather chart ! - Copyright ORBIFLY December 2007 - Disclaimer

ORBIFLY MET'MAP TEAM :

Programming & Development : Alexandra Zaïnal
Concept & original design : Baudouin d'Aumeries
Assistance for programming : Marc-Olivier Méhu
Technical & hardware support : Manuel Goepfert

Contact : metmap@orbifly.com




SOURCES & CREDITS :

   NOAA